This is the latest recevied weather packets stored in our database for station/object OK3MS-5. If no packets are shown the sender has not sent any weather packets the latest 10 day(s).
| Time | Temp. | Humidity | Pressure | Rain* | Wind** | Luminosity | Snow |
|---|---|---|---|---|---|---|---|
| 1777547404 | 11.11° C | 31% | 1029.1 hPa | 0 mm | - | 732 W/m² | - |
| 1777547105 | 10.56° C | 30% | 1029.1 hPa | 0 mm | - | 736 W/m² | - |
| 1777546806 | 10.56° C | 30% | 1029.3 hPa | 0 mm | - | 731 W/m² | - |
| 1777546505 | 10.56° C | 31% | 1029.3 hPa | 0 mm | - | 735 W/m² | - |
| 1777546203 | 10° C | 31% | 1029.5 hPa | 0 mm | - | 736 W/m² | - |
| 1777545908 | 10° C | 29% | 1029.6 hPa | 0 mm | - | 735 W/m² | - |
| 1777545603 | 10° C | 31% | 1029.6 hPa | 0 mm | - | 728 W/m² | - |
| 1777545304 | 9.44° C | 31% | 1029.7 hPa | 0 mm | - | 722 W/m² | - |
| 1777545005 | 9.44° C | 33% | 1029.7 hPa | 0 mm | - | 722 W/m² | - |
| 1777544703 | 10° C | 33% | 1029.6 hPa | 0 mm | - | 723 W/m² | - |
| 1777544405 | 9.44° C | 34% | 1029.8 hPa | 0 mm | - | 716 W/m² | - |
| 1777544105 | 9.44° C | 34% | 1029.9 hPa | 0 mm | - | 710 W/m² | - |
| 1777543804 | 8.89° C | 34% | 1029.9 hPa | 0 mm | - | 710 W/m² | - |
| 1777543505 | 8.89° C | 34% | 1030.1 hPa | 0 mm | - | 700 W/m² | - |
| 1777543203 | 8.89° C | 37% | 1030.1 hPa | 0 mm | - | 696 W/m² | - |
| 1777542903 | 9.44° C | 36% | 1030 hPa | 0 mm | - | 692 W/m² | - |
| 1777542606 | 9.44° C | 36% | 1029.9 hPa | 0 mm | - | 689 W/m² | - |
| 1777542303 | 8.89° C | 35% | 1030.1 hPa | 0 mm | - | 684 W/m² | - |
| 1777542006 | 8.33° C | 36% | 1030.2 hPa | 0 mm | - | 682 W/m² | - |
| 1777541704 | 8.33° C | 36% | 1030.3 hPa | 0 mm | - | 678 W/m² | - |
| 1777541406 | 8.33° C | 38% | 1030.4 hPa | 0 mm | - | 672 W/m² | - |
| 1777541105 | 8.33° C | 36% | 1030.4 hPa | 0 mm | - | 666 W/m² | - |
| 1777540806 | 8.33° C | 35% | 1030.2 hPa | 0 mm | - | 657 W/m² | - |
| 1777540504 | 8.33° C | 35% | 1030.2 hPa | 0 mm | - | 654 W/m² | - |
| 1777540205 | 8.33° C | 35% | 1030.4 hPa | 0 mm | - | 646 W/m² | - |
* Rain latest hour (hover to see other rain measurements)
** Current wind speed in m/s (hover to see current wind gust speed)